Retour au catalogue

SL-16 DEB

ActifLEO
NORAD 39722·DEBRIS·🇷🇺 Russia

Lancé Dec 25, 1992 depuis Baikonur Cosmodrome

Loading…

Prochains Passages (prochaines 24 heures)

TLE

FraisSource: Space-Track

Époque: Sep 14, 2026, 13:34 UTC

1 39722U 92093KN  26257.56553631  .00000254  00000-0  18734-3 0  9999
2 39722  70.8937 191.6301 0102041 134.9754  38.5798 14.02169815634179

Suivez SL-16 DEB en temps réel avec AllMySat

Download on the App Store